Weather History for Joplin, MO

Change the Weather History Date:

Saturday, November 10, 2012

  Actual Average Record
Temperature  
Mean Temperature 69 °F 51 °F  
Max Temperature 75 °F 62 °F 79 °F (1949)
Min Temperature 63 °F 40 °F 19 °F (1960)
Degree Days  
Heating Degree Days 0 14  
Month to date heating degree days 101 125  
Since 1 July heating degree days 425 377  
Cooling Degree Days 4 0  
Month to date cooling degree days 4 5  
Year to date cooling degree days 2106 1696  
Growing Degree Days 19 (Base 50)    
Moisture  
Dew Point 52 °F    
Average Humidity 57    
Maximum Humidity 67    
Minimum Humidity 41    
Precipitation  
Precipitation 0.00 in 0.14 in 0.89 in (2004)
Month to date precipitation T 1.32  
Year to date precipitation 35.65 41.27  
Snow  
Snow 0.00 in - - ()
Month to date snowfall 0.0  
Snow Depth 0.00 in    
Sea Level Pressure  
Sea Level Pressure 29.84 in    
Wind  
Wind Speed 22 mph (South)    
Max Wind Speed 31 mph    
Max Gust Speed 41 mph    
Visibility 10 miles    
Events      
T = Trace of Precipitation, MM = Missing Value Source: NWS Daily Summary

Daily Weather History Graph

Daily Weather History Graph

Search for Another Location

Airport:

Trip Planner

Search our weather history database for the weather conditions in past years. The results will help you decide how hot, cold, wet, or windy it might be!

Date:

Astronomy

Nov. 10, 2012 Rise Set
Actual Time 6:52 AM CST 5:11 PM CST
Civil Twilight 6:24 AM CST 5:38 PM CST
Nautical Twilight 5:53 AM CST 6:09 PM CST
Astronomical Twilight 5:22 AM CST 6:40 PM CST
Moon 3:02 AM CST (11/10) 2:54 PM CST (11/10)
Length of Visible Light 11h 14m
Length of Day
10h 19m
Waning Crescent, 14% of the Moon is Illuminated
Nov 10
Waning Crescent
Nov 13
New
Nov 20
First Quarter
Nov 28
Full
Dec 6
Last Quarter

Hourly Weather History & Observations

Time (CST) Temp. Dew Point Humidity Pressure Visibility Wind Dir Wind Speed Gust Speed Precip Events Conditions
12:53 AM 66.9 °F 54.0 °F 63% 29.87 in 10.0 mi South 18.4 mph 34.5 mph N/A   Clear
1:53 AM 66.0 °F 53.1 °F 63% 29.87 in 10.0 mi South 20.7 mph - N/A   Clear
2:53 AM 66.0 °F 53.1 °F 63% 29.87 in 10.0 mi South 21.9 mph 28.8 mph N/A   Clear
3:53 AM 64.9 °F 53.1 °F 65% 29.87 in 10.0 mi South 23.0 mph 28.8 mph N/A   Clear
4:53 AM 64.0 °F 53.1 °F 67% 29.90 in 10.0 mi South 18.4 mph 27.6 mph N/A   Clear
5:53 AM 64.0 °F 52.0 °F 65% 29.88 in 10.0 mi South 23.0 mph 31.1 mph N/A   Clear
6:53 AM 63.0 °F 52.0 °F 67% 29.91 in 10.0 mi South 17.3 mph 31.1 mph N/A   Clear
7:53 AM 64.0 °F 52.0 °F 65% 29.93 in 10.0 mi South 19.6 mph 28.8 mph N/A   Clear
8:53 AM 64.9 °F 53.1 °F 65% 29.93 in 10.0 mi South 21.9 mph 34.5 mph N/A   Clear
9:53 AM 69.1 °F 54.0 °F 58% 29.91 in 10.0 mi South 27.6 mph 38.0 mph N/A   Clear
10:53 AM 71.1 °F 53.1 °F 53% 29.90 in 10.0 mi SSW 24.2 mph 34.5 mph N/A   Clear
11:53 AM 72.0 °F 53.1 °F 51% 29.88 in 10.0 mi South 26.5 mph 36.8 mph N/A   Clear
12:53 PM 73.9 °F 52.0 °F 46% 29.83 in 10.0 mi South 23.0 mph 34.5 mph N/A   Clear
1:53 PM 73.0 °F 52.0 °F 48% 29.81 in 10.0 mi South 18.4 mph 27.6 mph N/A   Clear
2:53 PM 75.0 °F 50.0 °F 41% 29.78 in 10.0 mi South 28.8 mph 34.5 mph N/A   Clear
3:53 PM 73.9 °F 50.0 °F 43% 29.78 in 10.0 mi South 18.4 mph 27.6 mph N/A   Clear
4:53 PM 71.1 °F 51.1 °F 49% 29.78 in 10.0 mi South 20.7 mph 28.8 mph N/A   Clear
5:53 PM 69.1 °F 50.0 °F 51% 29.79 in 10.0 mi SSE 18.4 mph 27.6 mph N/A   Clear
6:53 PM 69.1 °F 48.9 °F 49% 29.79 in 10.0 mi SSE 19.6 mph 31.1 mph N/A   Clear
7:53 PM 69.1 °F 52.0 °F 54% 29.78 in 10.0 mi SSE 23.0 mph 33.4 mph N/A   Clear
8:53 PM 68.0 °F 53.1 °F 59% 29.79 in 10.0 mi South 20.7 mph 31.1 mph N/A   Clear
9:53 PM 66.2 °F 53.6 °F 64% 29.79 in 10.0 mi South 20.7 mph 29.9 mph N/A   Clear
10:53 PM 68.0 °F 54.0 °F 61% 29.76 in 10.0 mi South 21.9 mph 31.1 mph N/A   Clear
11:53 PM 68.0 °F 55.0 °F 63% 29.77 in 10.0 mi South 24.2 mph 33.4 mph N/A   Clear